Evans Head Observation History
Time Wind Speed Temp Pressure Rel. Hum Rain
08/08:30am WSW 5-7 kts 17.3°c 1020.4 hPa 94% 16.0mm
08/08:00am WSW 7-10 kts 17.1°c 1020.0 hPa 94% 12.4mm
08/07:30am WSW 6-8 kts 17.6°c 1019.6 hPa 93% 10.2mm
08/07:00am WSW 8-12 kts 17.5°c 1019.0 hPa 91% 9.6mm
08/06:30am WSW 5-7 kts 16.8°c 1018.8 hPa 91% 9.6mm
08/06:00am W 5-6 kts 16.6°c 1018.5 hPa 92% 9.6mm
08/05:30am W 4-5 kts 16.5°c 1018.3 hPa 93% 9.4mm
08/05:00am WSW 6-8 kts 16.9°c 1018.1 hPa 93% 9.4mm
08/04:30am WSW 5-7 kts 16.7°c 1018.1 hPa 95% 9.4mm
08/04:00am W 4-6 kts 16.7°c 1017.9 hPa 95% 8.6mm
08/03:30am WSW 6-9 kts 16.9°c 1017.7 hPa 94% 8.2mm
08/03:00am SW 8-9 kts 17.0°c 1017.6 hPa 94% 7.4mm
08/02:30am WSW 7-9 kts 17.0°c 1017.7 hPa 95% 7.4mm
08/02:00am W 5-6 kts 17.0°c 1018.1 hPa 94% 7.4mm
08/01:30am SW 6-9 kts 17.1°c 1018.3 hPa 94% 7.4mm
08/01:00am WSW 6-8 kts 17.2°c 1018.6 hPa 94% 7.2mm
08/12:30am W 3-7 kts 17.2°c 1018.6 hPa 94% 6.4mm
08/12:00am WSW 3-7 kts 17.1°c 1018.5 hPa 95% 6.4mm
Time Wind Speed Temp Pressure Rel. Hum Rain
07/11:30pm CALM 0-4 kts 17.4°c 1018.8 hPa 95% 6.2mm
07/11:00pm WSW 7-10 kts 17.4°c 1018.9 hPa 95% 6.2mm
07/10:30pm SW 7-10 kts 17.6°c 1019.0 hPa 94% 5.2mm
07/10:00pm SW 8-12 kts 17.5°c 1019.1 hPa 93% 4.6mm
07/09:30pm SSW 10-16 kts 18.4°c 1019.1 hPa 90% 3.6mm
07/09:00pm SSE 14-21 kts 19.3°c 1019.0 hPa 83% 3.6mm
07/08:30pm SSW 12-24 kts 18.0°c 1019.1 hPa 94% 3.6mm
07/08:00pm SW 11-17 kts 18.0°c 1018.6 hPa 94% 3.6mm
07/07:30pm SSW 12-19 kts 18.1°c 1018.3 hPa 94% 3.6mm
07/07:00pm SSW 11-16 kts 18.0°c 1018.0 hPa 94% 3.6mm
07/06:30pm SSW 12-18 kts 18.2°c 1017.8 hPa 94% 3.6mm
07/06:00pm SSW 11-16 kts 18.5°c 1017.3 hPa 95% 3.6mm
07/05:30pm SSW 8-14 kts 18.4°c 1017.2 hPa 95% 3.4mm
07/05:00pm SSW 15-22 kts 18.7°c 1016.9 hPa 94% 2.2mm
07/04:30pm S 14-21 kts 19.5°c 1016.9 hPa 88% 1.6mm
07/04:00pm SSW 16-24 kts 19.4°c 1016.8 hPa 90% 1.6mm
07/03:30pm S 15-23 kts 20.1°c 1016.6 hPa 89% 1.6mm
07/03:00pm SSW 12-19 kts 20.4°c 1016.6 hPa 92% 1.6mm
07/02:30pm SW 9-15 kts 19.0°c 1016.8 hPa 94% 1.6mm
07/02:00pm SSW 12-18 kts 19.1°c 1017.2 hPa 92% 1.0mm
07/01:30pm SSW 14-21 kts 21.1°c 1017.1 hPa 79% 0.0mm
07/01:00pm SSW 13-20 kts 22.1°c 1017.2 hPa 70% 0.0mm
07/12:30pm SSW 14-21 kts 22.7°c 1017.5 hPa 70% 0.0mm
07/12:00pm S 16-22 kts 22.6°c 1017.9 hPa 67% 0.0mm
07/11:39am S 15-25 kts 23.7°c 1018.2 hPa 69% 0.0mm
07/11:30am S 19-25 kts 22.2°c 1018.3 hPa 67% 0.0mm
07/11:00am SSW 17-23 kts 23.3°c 1018.6 hPa 61% 0.0mm
07/10:30am SSW 15-22 kts 23.2°c 1018.7 hPa 63% 0.0mm
07/10:00am SSW 16-22 kts 22.3°c 1018.7 hPa 65% 0.0mm
07/09:30am SSW 13-20 kts 22.5°c 1018.9 hPa 66% 0.0mm
07/09:00am SSW 12-18 kts 21.3°c 1018.9 hPa 71% 0.0mm
07/08:30am SSW 12-19 kts 21.1°c 1018.8 hPa 70% 0.0mm
07/08:00am SSW 12-17 kts 20.4°c 1018.5 hPa 72% 0.0mm
07/07:30am SW 11-17 kts 19.8°c 1018.2 hPa 71% 0.0mm
07/07:00am SW 11-15 kts 18.1°c 1017.9 hPa 76% 0.0mm
07/06:30am SW 8-12 kts 18.1°c 1017.8 hPa 76% 0.0mm
07/06:00am SW 9-13 kts 17.6°c 1017.5 hPa 78% 0.0mm
07/05:30am SW 8-11 kts 17.8°c 1017.0 hPa 77% 0.0mm
07/05:00am SW 10-15 kts 18.0°c 1016.7 hPa 76% 0.0mm
07/04:30am SW 9-12 kts 17.8°c 1016.6 hPa 78% 0.0mm
07/04:00am SW 8-12 kts 17.9°c 1016.5 hPa 79% 0.0mm
07/03:30am SW 8-11 kts 17.9°c 1016.4 hPa 79% 0.0mm
07/03:00am SW 7-10 kts 18.1°c 1016.4 hPa 79% 0.0mm
07/02:30am SW 8-12 kts 18.7°c 1016.6 hPa 76% 0.0mm
07/02:00am SW 9-14 kts 19.5°c 1016.8 hPa 72% 0.0mm
07/01:30am SSW 7-11 kts 19.8°c 1017.0 hPa 74% 0.0mm
07/01:00am SSW 8-11 kts 19.7°c 1017.2 hPa 74% 0.0mm
07/12:30am SSW 7-10 kts 19.1°c 1017.4 hPa 75% 0.0mm
07/12:00am SW 7-9 kts 18.6°c 1017.6 hPa 76% 0.0mm
Time Wind Speed Temp Pressure Rel. Hum Rain
06/11:30pm SSW 7-11 kts 18.8°c 1017.7 hPa 76% 0.0mm
06/11:00pm SSW 7-10 kts 19.1°c 1017.8 hPa 75% 0.0mm
06/10:30pm S 7-12 kts 19.5°c 1018.0 hPa 73% 0.0mm
06/10:00pm S 10-14 kts 20.1°c 1018.0 hPa 72% 0.0mm
06/09:30pm SSE 11-15 kts 20.4°c 1017.9 hPa 72% 0.0mm
06/09:00pm SSE 9-13 kts 20.5°c 1017.8 hPa 70% 0.0mm
06/08:30pm SSE 10-15 kts 20.7°c 1017.6 hPa 69% 0.0mm
06/08:00pm SE 9-12 kts 20.6°c 1017.3 hPa 71% 0.0mm
06/07:30pm SSE 11-16 kts 20.9°c 1017.0 hPa 71% 0.0mm
06/07:00pm SSE 11-14 kts 20.7°c 1016.6 hPa 73% 0.0mm
06/06:30pm SSE 11-15 kts 20.8°c 1016.3 hPa 74% 0.0mm
06/06:00pm SE 10-14 kts 20.7°c 1015.8 hPa 74% 0.0mm
06/05:30pm SE 9-15 kts 20.7°c 1015.5 hPa 73% 0.0mm
06/05:00pm SSE 10-15 kts 21.1°c 1015.3 hPa 74% 0.0mm
06/04:30pm SSE 12-16 kts 21.8°c 1015.1 hPa 71% 0.0mm
06/04:00pm SSE 11-16 kts 22.5°c 1015.1 hPa 69% 0.0mm
06/03:30pm SSE 12-16 kts 23.1°c 1015.3 hPa 66% 0.0mm
06/03:00pm SSE 12-18 kts 23.4°c 1015.3 hPa 66% 0.0mm
06/02:30pm SSE 13-18 kts 23.7°c 1015.4 hPa 62% 0.0mm
06/02:00pm SSE 12-17 kts 24.0°c 1015.6 hPa 60% 0.0mm
06/01:30pm SSE 9-14 kts 24.4°c 1015.7 hPa 58% 0.0mm
06/01:00pm SSE 11-15 kts 24.4°c 1015.9 hPa 59% 0.0mm
06/12:30pm SSE 11-16 kts 24.9°c 1016.1 hPa 62% 0.0mm
06/12:00pm S 11-16 kts 24.1°c 1016.7 hPa 65% 0.0mm
06/11:30am SSE 10-15 kts 23.9°c 1017.1 hPa 62% 0.0mm
06/11:00am SSE 10-15 kts 24.3°c 1017.3 hPa 60% 0.0mm
06/10:30am S 8-11 kts 24.3°c 1017.4 hPa 59% 0.0mm
06/10:00am SW 7-9 kts 22.6°c 1017.7 hPa 54% 0.0mm
06/09:30am SW 7-9 kts 21.8°c 1017.8 hPa 55% 0.0mm
06/09:00am SW 7-11 kts 20.7°c 1017.9 hPa 63% 0.0mm
06/08:30am SW 5-9 kts 19.9°c 1017.9 hPa 66% 0.0mm
06/08:00am WSW 5-8 kts 18.7°c 1017.7 hPa 69% 0.0mm
06/07:30am CALM 0 kts 18.4°c 1017.4 hPa 75% 0.0mm
06/07:00am W 5-7 kts 17.3°c 1017.1 hPa 77% 0.0mm
06/06:30am NW 4-6 kts 14.9°c 1016.6 hPa 88% 0.0mm
06/06:00am W 5-7 kts 16.2°c 1016.3 hPa 81% 0.0mm
06/05:30am WSW 7-9 kts 17.0°c 1015.9 hPa 77% 0.0mm
06/05:00am W 7-8 kts 16.4°c 1015.8 hPa 81% 0.0mm
06/04:30am WSW 7-9 kts 16.4°c 1015.6 hPa 80% 0.0mm
06/04:00am W 6-8 kts 16.5°c 1015.3 hPa 81% 0.0mm
06/03:30am W 7-8 kts 16.4°c 1015.1 hPa 84% 0.0mm
06/03:00am WSW 7-8 kts 16.5°c 1015.1 hPa 84% 0.0mm
06/02:30am SW 6-9 kts 16.4°c 1015.0 hPa 84% 0.0mm
06/02:00am WSW 7-9 kts 16.8°c 1015.1 hPa 83% 0.0mm
06/01:30am WSW 6-8 kts 17.3°c 1015.4 hPa 82% 0.0mm
06/01:00am W 6-8 kts 17.2°c 1015.6 hPa 84% 0.0mm
06/12:30am WSW 4-6 kts 17.9°c 1015.6 hPa 81% 0.0mm
06/12:00am NW 3-4 kts 19.3°c 1015.8 hPa 75% 0.0mm